Location: Newark
(48.1500°N, 2.9667°W)
Time: 07:53:55
(UTC+00:00)

Transit 2A - Pass Details

Date: 25 January 2020
Orbit: 600 x 959 km, 66.7° (Epoch: 18 February)

Event Time Altitude Azimuth Distance (km) Brightness Sun altitude
Rises 21:15:10 0° 240° (WSW) 2,872 - -42.1°
Reaches altitude 10° 21:17:36 10° 251° (WSW) 1,952 - -42.4°
Maximum altitude 21:21:32 33° 315° (NW) 1,028 - -43.1°
Drops below altitude 10° 21:25:30 10° 21° (NNE) 1,967 - -43.7°
Sets 21:27:59 0° 31° (NNE) 2,899 - -44.0°
